Flag for U.S.A. Weather past 2 weeks in Oberlin, Ohio, U.S.A.

Now
40 °F

Overcast.


Feels Like: 32 °F
Forecast: 34 / 47 °F
Wind: 15 mph from Northeast

Location: Lorain County Regional Airport

Current Time: Mar 31, 2015 at 1:43:21 PM

Latest Report: Mar 31, 2015 at 12:53 PM


Visibility: 10 mi

Pressure: 29.77 "Hg

Humidity: 80%

Dew point: 34 °F

Location of OberlinLocation

Historic Weather in Oberlin — Graph

°F

Oberlin temperature yesterday

Maximum temperature yesterday: 54 °F (at 4:53 PM)
Minimum temperature yesterday: 38 °F (at 7:53 AM)
Average temperature yesterday: 45 °F

Past Weeks' High & Low Weather Summary

 TemperatureHumidityPressure
High60 °F (Mar 16, 3:53 PM)100% (Mar 25, 10:53 AM)30.36 "Hg (Mar 25, 10:53 AM)
Low15 °F (Mar 28, 4:53 AM)31% (Mar 29, 7:53 PM)29.66 "Hg (Mar 31, 9:53 AM)
Average35 °F69%30.11 "Hg
* Reported Mar 16 11:53 AM — Mar 31 11:53 AM, Oberlin, Weather by CustomWeather, © 2015

Note: Actual official high and low records may vary slightly from our data, if they occured in-between our weather recording intervals... More about our weather records

Advertising

Oberlin weather history for previous 24 hours

 ConditionsComfort  
Time TempWeatherWind HumidityBarometerVisibility
11:53 AM
Tue, Mar 31
42 °FOvercast.16 mph76%29.72 "Hg10 mi
10:53 AM51 °FPartly sunny.18 mph61%29.67 "Hg10 mi
9:53 AM49 °FBroken clouds.16 mph64%29.66 "Hg10 mi
8:53 AM44 °FPartly sunny.5 mph76%29.68 "Hg10 mi
7:53 AM42 °FMostly cloudy.No wind76%29.70 "Hg10 mi
6:53 AM42 °FLight rain. Mostly cloudy.8 mph73%29.71 "Hg10 mi
5:53 AM40 °FMostly cloudy.10 mph77%29.76 "Hg10 mi
4:53 AM39 °FOvercast.9 mph82%29.80 "Hg10 mi
3:53 AM38 °FOvercast.8 mph90%29.86 "Hg10 mi
2:53 AM38 °FLight rain. Overcast.5 mph86%29.91 "Hg10 mi
1:53 AM40 °FLight rain. Overcast.8 mph68%29.95 "Hg10 mi
12:53 AM39 °FOvercast.3 mph73%29.98 "Hg10 mi
11:53 PM
Mon, Mar 30
40 °FOvercast.3 mph68%30.00 "Hg10 mi
10:53 PM42 °FPassing clouds.7 mph57%29.99 "Hg10 mi
9:53 PM44 °FClear.9 mph51%29.98 "Hg10 mi
8:53 PM46 °FClear.13 mph46%29.96 "Hg10 mi
7:53 PM48 °FSunny.15 mph41%29.94 "Hg10 mi
6:53 PM50 °FPartly sunny.13 mph41%29.93 "Hg10 mi
5:53 PM52 °FPartly sunny.16 mph38%29.93 "Hg10 mi
4:53 PM54 °FPartly sunny.16 mph38%29.93 "Hg10 mi
3:53 PM53 °FPartly sunny.20 mph37%29.93 "Hg10 mi
2:53 PM51 °FPartly sunny.20 mph39%29.94 "Hg10 mi
1:53 PM51 °FPassing clouds.15 mph42%29.96 "Hg10 mi
Weather by CustomWeather, © 2015

See weather overviewHow to use our weather pages